Home   Weather   Union City   Past weeks
Flag for USA

Past Weather in Union City, New Jersey, USA — Yesterday and Last 2 Weeks

Now
50 °F

Passing clouds.


Feels Like: 48 °F
Forecast: 79 / 50 °F
Wind: 5 mph from Southwest

Location: Newark International Airport

Current Time: Sep 20, 2019 at 6:28:06 am

Latest Report: Sep 20, 2019 at 5:51 am


Visibility: 10 mi

Pressure: 30.26 "Hg

Humidity: 89%

Dew Point: 47 °F

Location of Union CityLocation

Past Weather in Union City — Graph

°F

Union City Temperature Yesterday

Maximum temperature yesterday: 71 °F (at 3:51 pm)
Minimum temperature yesterday: 49 °F (at 6:51 am)
Average temperature yesterday: 61 °F

High & Low Weather Summary for the Past Weeks

 TemperatureHumidityPressure
High90 °F (Sep 11, 3:51 pm)97% (Sep 12, 9:23 pm)30.45 "Hg (Sep 12, 9:23 pm)
Low49 °F (Sep 19, 6:51 am)24% (Sep 17, 4:51 pm)29.74 "Hg (Sep 7, 2:51 am)
Average69 °F66%30.14 "Hg
* Reported Sep 5 4:51 am — Sep 20 4:51 am, Union City. Weather by CustomWeather, © 2019

Note: Actual official high and low records may vary slightly from our data, if they occured in-between our weather recording intervals... More about our weather records

Advertising

Union City Weather History for the Previous 24 Hours

Scroll right to see more
 ConditionsComfort  
Time TempWeatherWind HumidityBarometerVisibility
4:51 am
Fri, Sep 20
51 °FPassing clouds.5 mph86%30.26 "Hg10 mi
3:51 am52 °FPassing clouds.5 mph80%30.25 "Hg10 mi
2:51 am54 °FPassing clouds.7 mph74%30.26 "Hg10 mi
1:51 am54 °FPassing clouds.6 mph74%30.27 "Hg10 mi
12:51 am55 °FPassing clouds.7 mph67%30.27 "Hg10 mi
11:51 pm
Thu, Sep 19
58 °FPassing clouds.9 mph60%30.28 "Hg10 mi
10:51 pm58 °FPassing clouds.6 mph65%30.27 "Hg10 mi
9:51 pm60 °FPassing clouds.7 mph65%30.27 "Hg10 mi
8:51 pm64 °FPassing clouds.6 mph52%30.27 "Hg10 mi
7:51 pm66 °FPassing clouds.5 mph42%30.28 "Hg10 mi
6:51 pm67 °FPassing clouds.5 mph42%30.28 "Hg10 mi
5:51 pm71 °FPassing clouds.3 mph24%30.28 "Hg10 mi
4:51 pm71 °FPassing clouds.5 mph25%30.28 "Hg10 mi
3:51 pm71 °FPassing clouds.6 mph29%30.29 "Hg10 mi
2:51 pm69 °FSunny.6 mph32%30.31 "Hg10 mi
1:51 pm67 °FPassing clouds.5 mph36%30.32 "Hg10 mi
12:51 pm68 °FPassing clouds.6 mph35%30.33 "Hg10 mi
11:51 am65 °FPassing clouds.8 mph44%30.35 "Hg10 mi
10:51 am62 °FPassing clouds.8 mph50%30.37 "Hg10 mi
9:51 am60 °FPassing clouds.8 mph56%30.37 "Hg10 mi
8:51 am57 °FPassing clouds.8 mph62%30.36 "Hg10 mi
7:51 am54 °FPassing clouds.8 mph67%30.35 "Hg10 mi
6:51 am49 °FPassing clouds.8 mph74%30.34 "Hg10 mi
Weather by CustomWeather, © 2019

See weather overview